SCP
0 0 0 0 0 0 0 0 0 0 0 0 0 0 0 0 0 0 0 0 0 0 0 0 0 0 0 0 0 0 0 0 0 0 0 0 0 0 0 0 0 0 0 0
0 0 0 0 0 0 0 0 0 0 0 0 0 0 0 0 0 0 0 0 0 0 0 0 0 0 0 0 0 0 0 0 0 0 0 0 0 0 0 0 0 0 0 0
0 0 0 0 0 0 0 0 0 0 0 0 0 0 0 0 0 0 0 0 0 0 0 0 0 0 0 0 0 0 0 0 0 0 0 0 0 0 0 0 0 0 0 0
0 0 0 0 0 0 0 0 0 0 0 0 0 0 0 0 0 0 0 0 0 0 0 0 0 0 0 0 0 0 0 0 0 0 0 0 0 0 0 0 0 0 0 0
0 0 0 0 0 0 0 0 0 0 0 0 0 0 0 0 0 0 0 0 0 0 0 0 0 0 0 0 0 0 0 0 0 0 0 0 0 0 0 0 0 0 0 0
0 0 0 0 0 0 0 0 0 0 0 0 0 0 0 0 0 0 0 0 0 0 0 0 0 0 0 0 0 0 0 0 0 0 0 0 0 0 0 0 0 0 0 0
0 0 0 0 0 0 0 0 0 0 0 0 0 0 0 0 0 0 0 0 0 0 0 0 0 0 0 0 0 0 0 0 0 0 0 0 0 0 0 0 0 0 0 0
0 0 0 0 0 0 0 0 0 0 0 0 0 0 0 -0 0 0 0 0 0 0 0 0 0 0 0 0 0 0 0 0 0 0 0 0 0 0 0 0 0 0 0 0
0 0 0 0 0 0 0 0 0 0 0 0 0 0 0 -0 -0 0 0 0 0 0 0 0 0 0 0 0 0 0 0 0 0 0 0 0 0 0 0 0 0 0 0 0
0 0 0 0 0 0 0 0 0 0 0 0 0 0 0 0 0 0 0 0 0 0 0 0 0 0 0 0 0 0 0 0 0 0 0 0 0 0 0 0 0 0 0 0
-0 -0 -0 -0 0 0 0 0 0 0 0 0 0 0 0 0 0 0 0 -0 -0 -0 0 0 0 0 0 0 0 0 0 0 0 0 0 0 0 0 0 0 0 0 0 0
0 0 0 0 0 0 0 0 0 0 0 0 0 0 0 0 0 0 -0 -0 0 0 0 0 0 0 0 0 0 0 0 0 0 0 0 0 0 0 0 0 0 0 0 0
0 0 0 0 0 0 0 0 0 0 0 0 0 0 0 0 0 0 0 0 0 0 0 0 0 0 0 0 0 0 0 0 0 0 0 0 0 0 0 0 0 0 0 0
0 0 0 0 0 0 0 0 0 0 0 0 0 0 0 0 0 0 0 0 0 0 0 0 0 0 0 0 0 0 0 0 0 0 0 0 0 0 0 0 0 0 0 0
0 0 -0 -0 0 0 0 0 0 0 0 0 0 0 0 0 0 0 0 0 0 0 0 0 0 0 0 0 0 0 0 0 0 0 0 0 0 0 0 0 -0 0 0 0
0 0 0 0 -0 0 0 0 0 0 0 0 0 0 0 0 0 0 0 0 0 0 0 0 0 0 0 0 0 0 0 0 0 0 0 0 0 0 0 0 0 0 0 0
0 0 0 0 0 0 0 0 0 0 0 0 0 0 0 0 0 0 0 0 0 0 0 0 0 0 0 0 0 0 0 0 0 0 0 0 0 0 0 0 0 0 0 0
0 0 0 0 0 0 0 0 0 0 0 0 0 0 0 0 0 0 0 0 0 0 0 0 0 0 0 0 0 0 0 0 0 0 0 0 0 0 0 0 0 0 0 0
0 0 0 0 0 0 0 0 0 0 0 0 0 0 0 0 0 0 0 0 0 0 0 0 0 0 0 0 0 0 0 0 0 0 0 0 0 0 0 0 0 0 0 0
0 0 0 0 0 0 0 0 0 0 0 0 0 0 0 0 0 0 0 0 0 0 0 0 0 0 0 0 0 0 0 0 0 0 0 0 0 0 0 0 0 0 0 0
0 0 0 0 0 0 0 0 0 0 0 0 0 0 0 0 0 0 0 0 0 0 0 0 0 0 0 0 0 0 0 0 0 0 0 0 0 0 0 0 0 0 0 0
0 0 0 0 0 0 0 0 0 0 0 0 0 0 0 0 0 0 0 0 0 0 0 0 0 0 0 0 0 0 0 0 0 0 0 0 0 0 0 0 0 0 0 0
0 0 0 0 0 0 0 0 0 0 0 0 0 0 0 0 0 0 0 0 0 0 0 0 0 0 0 0 0 0 0 0 0 0 0 0 0 0 0 0 0 0 0 0
0 0 0 0 0 0 0 0 0 0 0 0 0 0 0 0 0 0 0 0 0 0 0 0 0 0 0 0 0 0 0 0 0 0 0 0 0 0 0 0 0 0 0 0
0 0 0 0 0 0 0 0 0 0 0 0 0 0 0 0 0 0 0 0 0 0 0 0 0 0 0 0 0 0 0 0 0 0 0 0 0 0 0 0 0 0 0 0
0 0 0 0 0 0 0 0 0 0 0 0 0 0 0 0 0 0 0 0 0 0 0 0 0 0 0 0 0 0 0 0 0 0 0 0 0 0 0 0 0 0 0 0
Wind_Speed
2 3 5 10 8 7 4 2 1 1 3 6 7 7 6 4 3 2 1 3 4 4 5 6 6 6 5 4 5 4 4 3 3 3 3 3 3 4 4 4 5 5 4 3
2 4 11 11 9 4 3 2 1 1 4 5 6 7 3 0 2 5 5 5 5 4 5 6 6 5 5 5 5 5 5 4 3 2 2 1 1 1 2 3 4 5 6 6
4 5 6 6 6 3 2 6 6 5 5 6 6 2 2 2 3 6 7 6 6 8 8 8 7 7 6 6 7 6 5 5 4 3 2 1 2 3 3 4 4 5 6 6
1 2 3 4 4 2 2 7 11 11 8 2 3 3 5 3 3 5 6 7 8 8 8 8 8 8 7 7 6 6 6 5 4 4 3 2 1 1 3 3 3 6 6 6
3 2 1 1 3 4 5 7 8 9 7 4 2 2 4 1 3 5 7 9 10 9 9 8 8 7 6 6 6 5 5 4 3 3 3 2 2 2 3 3 4 5 5 5
4 2 2 3 3 3 9 7 6 6 5 3 2 1 5 3 5 5 7 9 10 9 7 5 4 4 3 3 4 4 4 3 3 3 2 3 3 3 3 4 3 4 4 4
8 5 2 2 2 4 5 6 4 5 5 1 2 1 7 6 7 8 9 8 8 6 5 4 4 4 3 4 4 4 4 3 3 2 2 3 3 3 3 3 3 3 3 3
3 7 6 2 1 1 1 8 6 3 3 1 2 3 8 6 5 6 7 5 4 4 4 5 5 5 4 4 4 4 3 3 2 2 3 2 2 2 2 3 3 3 3 3
3 6 6 3 1 3 3 1 6 8 5 3 2 4 7 5 2 4 5 5 5 5 6 5 5 5 4 4 4 4 4 3 3 3 2 2 2 2 3 3 3 3 3 4
6 3 5 4 5 5 4 3 6 6 5 3 2 3 5 5 6 5 5 6 6 6 5 5 5 5 4 4 4 4 4 3 3 2 2 2 3 3 3 3 4 4 4 4
3 3 5 5 2 1 3 3 5 4 6 6 3 5 7 9 8 7 7 7 8 7 6 5 5 4 4 4 4 3 3 3 3 3 3 3 4 4 4 4 5 5 5 5
2 5 1 5 5 2 3 4 6 5 0 4 4 5 4 8 7 8 8 7 7 7 6 6 5 4 4 4 3 4 4 4 4 4 4 4 4 5 5 5 6 6 6 6
4 6 4 9 11 6 1 2 5 7 5 4 5 4 2 5 6 7 7 7 6 7 6 4 4 4 4 4 4 4 4 5 4 4 4 4 5 5 6 7 7 6 7 7
6 5 6 5 8 6 3 2 4 6 5 4 7 7 5 6 7 6 7 8 8 7 6 5 4 4 4 5 5 5 5 5 4 4 4 5 6 6 7 7 6 7 7 7
5 2 2 4 5 4 5 4 2 5 8 8 8 10 10 10 9 9 8 7 6 5 5 5 4 4 4 5 5 5 5 5 4 4 5 6 6 6 6 6 7 7 7 8
3 2 2 5 7 8 7 5 0 4 5 6 8 6 8 7 6 6 6 7 6 5 4 4 3 3 5 5 5 5 5 5 4 4 5 6 6 5 6 6 7 7 7 7
3 4 2 4 7 6 5 4 2 3 4 7 7 8 7 6 6 6 7 7 6 5 5 4 4 5 5 5 5 5 5 4 4 5 5 5 5 6 6 7 7 7 7 7
7 5 4 1 5 3 10 6 3 5 3 5 7 7 7 7 5 5 7 7 7 6 5 4 4 5 5 4 4 4 4 4 4 5 5 5 5 6 7 7 8 8 7 8
8 8 4 3 2 6 9 5 3 6 2 4 8 7 7 6 4 1 6 7 7 7 6 5 5 4 4 4 4 3 3 4 4 5 5 5 5 7 7 8 9 8 8 9
4 5 5 4 3 6 9 5 4 9 1 4 7 8 8 7 2 6 7 6 7 6 4 4 3 3 3 4 3 2 4 4 5 5 6 6 6 7 8 9 9 8 8 9
2 2 2 4 5 8 7 4 4 3 8 8 9 9 8 8 9 7 7 7 7 6 5 4 2 2 3 3 1 2 4 5 5 5 6 6 6 7 8 7 7 8 9 9
4 2 3 3 2 7 6 2 5 10 7 8 9 9 9 9 8 7 9 9 8 6 4 3 2 2 3 2 0 2 4 5 5 5 6 7 7 8 8 8 9 8 8 9
2 6 6 7 9 10 7 8 8 8 8 9 9 9 10 10 9 9 9 9 8 7 5 3 3 2 1 1 1 2 5 5 5 5 6 7 8 7 7 8 9 9 7 7
5 2 2 4 8 8 8 7 6 8 10 10 10 10 11 10 10 10 9 8 7 6 5 4 2 1 2 2 2 3 4 4 4 5 7 7 8 9 8 7 6 7 7 7
7 4 3 5 8 6 5 6 7 7 7 8 8 10 12 12 10 10 9 9 8 6 5 4 4 3 4 4 3 3 3 3 4 6 6 7 7 8 8 8 7 8 8 9
5 5 5 7 9 6 8 8 7 6 6 8 9 8 8 11 11 11 10 9 8 7 5 5 4 4 4 4 3 4 3 2 4 5 6 6 6 7 7 8 10 11 11 13
Wind_Direction
210 141 250 251 232 219 215 176 176 297 41 55 65 63 52 46 39 336 180 139 140 160 176 174 173 165 154 144 136 135 119 102 84 63 50 31 355 342 344 348 343 338 327 326
25 242 249 268 278 255 228 166 198 52 75 75 79 70 62 42 231 241 208 178 177 189 188 189 189 184 180 175 168 159 150 136 123 121 131 158 246 304 319 335 347 347 338 324
186 233 267 295 312 301 230 175 184 146 89 66 93 87 210 233 235 225 200 184 189 195 197 197 192 193 189 184 181 172 165 152 145 138 110 46 16 354 347 338 334 330 326 319
257 276 347 359 314 230 218 187 162 152 129 149 188 196 235 200 233 207 191 188 201 207 204 198 193 193 194 193 180 168 164 159 160 147 139 154 171 254 267 279 301 316 324 325
265 265 32 309 258 160 173 152 140 138 125 100 26 142 267 176 220 224 208 201 208 211 207 201 193 189 186 176 165 163 161 169 180 173 169 171 206 237 269 298 320 323 324 332
267 254 206 230 274 140 127 95 74 73 85 65 295 177 273 219 211 218 220 215 212 212 208 194 175 153 149 149 146 154 162 189 207 200 196 193 222 253 288 311 320 319 318 324
334 331 297 215 7 37 101 95 43 19 37 321 293 289 262 247 233 215 221 223 217 204 181 159 144 137 143 148 155 162 168 199 225 219 228 231 236 247 262 271 273 292 306 311
348 318 307 313 165 207 134 129 146 183 168 195 302 271 270 278 255 217 218 217 193 158 138 139 146 145 148 149 152 159 172 203 231 236 257 263 260 236 242 250 257 272 272 274
208 270 290 287 12 92 55 52 153 124 100 105 247 294 303 299 265 209 197 162 150 142 141 143 146 149 154 154 166 175 181 208 241 253 265 269 252 254 265 274 275 282 283 287
180 237 308 324 34 33 123 124 71 82 114 111 195 228 226 219 206 183 155 148 154 153 151 151 158 167 173 177 186 188 188 203 224 230 236 238 249 260 265 274 283 283 284 288
89 115 325 352 20 343 20 42 92 102 134 138 184 252 222 196 186 167 165 166 168 168 167 173 180 183 184 190 194 198 204 213 228 233 241 251 254 257 261 262 265 263 264 270
64 108 326 295 288 231 170 170 137 126 158 134 142 260 278 165 163 155 168 179 180 176 180 184 188 194 205 213 218 219 224 230 235 237 241 247 253 257 259 259 259 256 256 257
98 90 39 345 341 341 296 188 152 130 114 126 135 230 245 148 158 172 177 183 183 184 186 191 204 219 231 234 236 235 237 239 239 241 250 262 267 265 261 260 259 257 255 256
108 104 147 198 240 269 289 261 160 124 134 167 172 175 197 186 183 195 188 185 187 191 189 197 224 243 252 250 245 243 249 243 242 249 258 266 268 265 265 267 268 266 262 259
97 126 248 258 285 326 311 286 202 157 168 164 181 175 201 198 192 193 191 189 173 169 184 198 215 238 255 261 258 255 253 250 249 257 264 265 269 271 272 275 275 274 270 270
92 130 2 326 318 329 320 310 193 142 148 138 134 182 210 200 190 191 183 158 150 171 191 196 211 244 264 266 262 257 250 251 250 260 266 271 279 282 281 281 282 281 277 273
131 125 94 292 311 355 317 272 164 150 162 151 165 189 188 184 187 178 157 150 169 191 199 212 238 252 262 265 255 249 248 252 260 266 271 278 283 286 286 290 293 286 282 277
150 133 139 236 10 317 258 263 165 133 112 139 141 161 170 169 166 169 168 171 189 197 206 231 247 258 264 260 258 255 255 263 272 277 281 284 287 290 291 290 287 285 280 279
153 146 147 147 218 273 289 287 173 125 48 140 140 153 154 147 100 265 211 189 193 200 206 221 232 240 257 270 264 261 274 280 285 286 287 287 291 294 296 296 293 290 288 286
103 118 137 162 196 245 257 267 129 96 99 221 159 163 163 140 128 250 230 202 195 198 204 216 231 247 276 278 267 271 283 290 288 286 287 287 290 293 295 294 293 291 287 285
32 33 167 205 227 257 249 228 94 114 231 214 184 179 172 176 197 211 194 188 189 191 198 194 206 256 268 271 272 290 295 290 285 288 291 293 294 294 294 293 293 294 292 290
199 191 226 179 211 263 248 203 177 214 212 196 190 186 183 195 202 189 176 178 179 181 188 188 210 265 278 279 293 303 292 283 289 297 301 300 298 300 308 301 299 296 292 292
193 191 193 187 214 233 230 217 216 185 188 200 193 194 179 180 188 181 177 176 180 182 192 198 198 255 292 266 180 282 280 289 302 310 307 303 303 301 298 297 299 300 295 292
288 232 193 264 266 256 250 246 233 201 201 204 193 186 175 181 184 178 173 177 181 188 193 186 179 204 239 242 250 258 278 297 310 309 305 304 307 307 305 300 293 293 293 294
255 288 300 287 285 302 287 244 226 218 212 204 198 188 185 179 179 175 175 181 186 188 187 176 178 199 224 237 255 267 279 299 307 304 302 304 304 303 306 303 294 289 280 273
241 233 221 243 246 222 247 253 239 227 227 212 199 202 197 181 178 173 177 182 182 180 175 174 181 196 220 234 252 267 264 277 301 305 306 305 307 306 305 307 309 298 285 283